Schneifelwetter: Wetterstation Hallschlag, 537 m . NN
Wetterdaten: Mittwoch, 01.10.2008
Datum Zeit Temp. A. Temp. 2 Feuchte A. Luftdruck Regen Wind Richtung Richtung Sonnenschein Helligkeit T Regen Taupunkt Windchill
01.10.2008 00:10 8,5 C 8,5 C 97 % 1002 hPa 0,0 l/m 52,2 km/h (7 Bft) W-SW67.5 245 0 min 0 lux 0,00 min 8,1 C -4,8 C
01.10.2008 00:26 8,5 C 8,4 C 97 % 1002 hPa 0,0 l/m 42,4 km/h (6 Bft) W-SW45 255 0 min 0 lux 0,00 min 8,1 C -3,7 C
01.10.2008 00:41 8,5 C 8,5 C 98 % 1002 hPa 0,0 l/m 41,9 km/h (6 Bft) W-SW45 245 0 min 0 lux 0,00 min 8,2 C -3,6 C
01.10.2008 00:56 8,5 C 8,5 C 98 % 1002 hPa 0,0 l/m 34,4 km/h (5 Bft) W-SW67.5 240 0 min 0 lux 0,00 min 8,2 C -2,4 C
01.10.2008 01:11 8,6 C 8,5 C 98 % 1002 hPa 0,3 l/m 33,4 km/h (5 Bft) W-SW45 245 0 min 0 lux 15,00 min 8,3 C -2,0 C
01.10.2008 01:26 8,6 C 8,6 C 99 % 1002 hPa 0,3 l/m 37,0 km/h (5 Bft) SW67.5 235 0 min 0 lux 15,00 min 8,5 C -2,7 C
01.10.2008 01:41 8,7 C 8,7 C 99 % 1002 hPa 0,6 l/m 40,2 km/h (6 Bft) W-SW45 240 0 min 0 lux 15,00 min 8,6 C -3,1 C
01.10.2008 01:56 8,8 C 8,8 C 99 % 1002 hPa 0,6 l/m 38,7 km/h (5 Bft) W-SW22.5 245 0 min 0 lux 15,00 min 8,7 C -2,7 C
01.10.2008 02:11 8,8 C 8,8 C 99 % 1002 hPa 0,0 l/m 42,3 km/h (6 Bft) SW45 225 0 min 0 lux 0,00 min 8,7 C -3,2 C
01.10.2008 02:26 8,9 C 8,9 C 99 % 1002 hPa 0,0 l/m 39,7 km/h (6 Bft) SW45 235 0 min 0 lux 0,00 min 8,8 C -2,7 C
01.10.2008 02:41 8,9 C 9,0 C 99 % 1001 hPa 0,0 l/m 44,6 km/h (6 Bft) W-SW45 245 0 min 0 lux 0,00 min 8,8 C -3,4 C
01.10.2008 02:56 9,0 C 9,0 C 99 % 1001 hPa 0,0 l/m 38,3 km/h (5 Bft) SW67.5 235 0 min 0 lux 0,00 min 8,9 C -2,3 C
01.10.2008 03:10 9,0 C 9,0 C 99 % 1001 hPa 0,0 l/m 42,1 km/h (6 Bft) W-SW45 240 0 min 0 lux 0,00 min 8,9 C -2,9 C
01.10.2008 03:25 9,0 C 9,0 C 99 % 1001 hPa 0,0 l/m 48,5 km/h (6 Bft) SW45 225 0 min 0 lux 0,00 min 8,9 C -3,7 C
01.10.2008 03:40 9,0 C 9,0 C 99 % 1001 hPa 0,0 l/m 37,7 km/h (5 Bft) W-SW67.5 245 0 min 0 lux 0,00 min 8,9 C -2,2 C
01.10.2008 03:55 9,0 C 9,0 C 99 % 1001 hPa 0,0 l/m 43,6 km/h (6 Bft) SW67.5 230 0 min 0 lux 0,00 min 8,9 C -3,1 C
01.10.2008 04:10 9,0 C 9,0 C 99 % 1001 hPa 0,0 l/m 45,5 km/h (6 Bft) W45 260 0 min 0 lux 0,00 min 8,9 C -3,3 C
01.10.2008 04:25 9,0 C 9,0 C 99 % 1001 hPa 0,0 l/m 43,1 km/h (6 Bft) W-SW67.5 245 0 min 0 lux 0,00 min 8,9 C -3,0 C
01.10.2008 04:40 9,0 C 9,0 C 99 % 1001 hPa 0,0 l/m 41,3 km/h (6 Bft) W-SW45 255 0 min 0 lux 0,00 min 8,9 C -2,8 C
01.10.2008 04:55 9,0 C 9,0 C 99 % 1000 hPa 3,9 l/m 33,7 km/h (5 Bft) SW45 235 0 min 0 lux 15,00 min 8,9 C -1,5 C
01.10.2008 05:10 9,0 C 9,0 C 99 % 1000 hPa 0,6 l/m 38,3 km/h (5 Bft) SW45 220 0 min 0 lux 15,00 min 8,9 C -2,3 C
01.10.2008 05:25 8,9 C 9,0 C 99 % 1000 hPa 0,3 l/m 38,6 km/h (5 Bft) W-SW45 240 0 min 0 lux 15,00 min 8,8 C -2,5 C
01.10.2008 05:40 9,0 C 9,0 C 99 % 1000 hPa 0,3 l/m 40,0 km/h (6 Bft) W-SW45 240 0 min 0 lux 15,00 min 8,9 C -2,6 C
01.10.2008 05:55 9,0 C 9,0 C 99 % 1000 hPa 0,6 l/m 40,9 km/h (6 Bft) W-SW45 245 0 min 0 lux 15,00 min 8,9 C -2,7 C
01.10.2008 06:10 9,0 C 9,0 C 99 % 1000 hPa 0,0 l/m 40,6 km/h (6 Bft) W-SW45 245 0 min 0 lux 0,00 min 8,9 C -2,7 C
01.10.2008 06:25 9,0 C 9,1 C 99 % 1000 hPa 0,6 l/m 37,2 km/h (5 Bft) W-SW45 240 0 min 0 lux 15,00 min 8,9 C -2,1 C
01.10.2008 06:40 9,0 C 9,1 C 99 % 1000 hPa 0,0 l/m 46,2 km/h (6 Bft) W-SW67.5 250 0 min 0 lux 0,00 min 8,9 C -3,4 C
01.10.2008 06:55 9,0 C 9,1 C 99 % 1000 hPa 0,3 l/m 36,7 km/h (5 Bft) W-SW45 255 0 min 0 lux 15,00 min 8,9 C -2,1 C
01.10.2008 07:10 9,0 C 9,1 C 99 % 1000 hPa 0,0 l/m 44,2 km/h (6 Bft) W-SW45 240 0 min 0 lux 0,00 min 8,9 C -3,2 C
01.10.2008 07:25 9,0 C 9,1 C 99 % 1000 hPa 0,3 l/m 44,9 km/h (6 Bft) W-SW45 240 0 min 104 lux 15,00 min 8,9 C -3,3 C
01.10.2008 07:40 9,0 C 9,1 C 99 % 999 hPa 0,3 l/m 40,0 km/h (6 Bft) SW67.5 230 0 min 275 lux 15,00 min 8,9 C -2,6 C
01.10.2008 07:55 9,1 C 9,1 C 99 % 999 hPa 0,0 l/m 39,6 km/h (6 Bft) SW45 235 0 min 761 lux 0,00 min 9,0 C -2,4 C
01.10.2008 08:10 9,1 C 9,2 C 99 % 999 hPa 0,3 l/m 48,1 km/h (6 Bft) SW67.5 235 0 min 1,33 klux 15,00 min 9,0 C -3,5 C
01.10.2008 08:25 9,2 C 9,2 C 99 % 1000 hPa 0,3 l/m 46,5 km/h (6 Bft) W-SW45 250 0 min 2,69 klux 15,00 min 9,1 C -3,2 C
01.10.2008 08:40 9,2 C 9,3 C 99 % 999 hPa 0,0 l/m 49,3 km/h (6 Bft) W-SW22.5 255 0 min 3,38 klux 0,00 min 9,1 C -3,5 C
01.10.2008 08:55 9,3 C 9,4 C 99 % 999 hPa 0,3 l/m 49,2 km/h (6 Bft) W-SW45 245 0 min 4,29 klux 15,00 min 9,2 C -3,3 C
01.10.2008 09:10 9,5 C 9,5 C 99 % 1000 hPa 0,0 l/m 47,2 km/h (6 Bft) W-SW67.5 250 0 min 6,34 klux 0,00 min 9,4 C -2,8 C
01.10.2008 09:25 9,4 C 9,5 C 99 % 999 hPa 0,3 l/m 43,0 km/h (6 Bft) W-SW45 250 0 min 4,31 klux 15,00 min 9,3 C -2,4 C
01.10.2008 09:40 9,6 C 9,7 C 99 % 1000 hPa 0,3 l/m 51,9 km/h (7 Bft) W-SW67.5 255 0 min 6,65 klux 15,00 min 9,5 C -3,1 C
01.10.2008 09:55 9,7 C 9,8 C 99 % 1000 hPa 0,0 l/m 45,8 km/h (6 Bft) SW67.5 230 0 min 11,6 klux 0,00 min 9,6 C -2,3 C
01.10.2008 10:10 9,8 C 9,8 C 99 % 1000 hPa 0,3 l/m 42,6 km/h (6 Bft) W-SW22.5 250 0 min 8,97 klux 15,00 min 9,7 C -1,8 C
01.10.2008 10:25 9,7 C 9,8 C 99 % 1000 hPa 0,3 l/m 42,9 km/h (6 Bft) W-SW45 255 0 min 8,69 klux 15,00 min 9,6 C -2,0 C
01.10.2008 10:40 9,8 C 9,9 C 99 % 999 hPa 0,3 l/m 47,4 km/h (6 Bft) W-SW45 250 0 min 12,8 klux 15,00 min 9,7 C -2,3 C
01.10.2008 10:55 10,0 C 10,1 C 99 % 999 hPa 0,0 l/m 50,6 km/h (7 Bft) SW45 230 0 min 15,7 klux 0,00 min 9,8 C -2,4 C
01.10.2008 11:10 10,1 C 10,1 C 98 % 1000 hPa 0,0 l/m 56,9 km/h (7 Bft) W-SW45 255 0 min 14,2 klux 0,00 min 9,8 C -2,8 C
01.10.2008 11:25 10,2 C 10,2 C 98 % 1000 hPa 0,3 l/m 45,8 km/h (6 Bft) W-SW45 250 0 min 14,2 klux 15,00 min 9,9 C -1,6 C
01.10.2008 11:40 10,4 C 10,5 C 98 % 1000 hPa 0,0 l/m 46,3 km/h (6 Bft) W-SW45 245 0 min 18,2 klux 0,00 min 10,1 C -1,3 C
01.10.2008 11:55 10,6 C 10,6 C 98 % 1000 hPa 0,3 l/m 42,4 km/h (6 Bft) W-SW67.5 245 0 min 20,5 klux 15,00 min 10,3 C -0,5 C
01.10.2008 12:10 10,7 C 10,7 C 98 % 1000 hPa 0,3 l/m 50,6 km/h (7 Bft) W-SW45 250 0 min 21,9 klux 15,00 min 10,4 C -1,3 C
01.10.2008 12:25 10,6 C 10,6 C 98 % 999 hPa 0,6 l/m 53,6 km/h (7 Bft) W-SW45 255 0 min 17,1 klux 15,00 min 10,3 C -1,7 C
01.10.2008 12:40 10,8 C 10,8 C 98 % 999 hPa 0,0 l/m 59,7 km/h (7 Bft) W-SW45 250 0 min 29,6 klux 0,00 min 10,5 C -1,9 C
01.10.2008 12:55 11,0 C 11,0 C 98 % 999 hPa 0,9 l/m 53,8 km/h (7 Bft) W-SW45 240 0 min 38,7 klux 15,00 min 10,7 C -1,1 C
01.10.2008 13:10 11,5 C 11,8 C 96 % 999 hPa 0,0 l/m 54,5 km/h (7 Bft) W-SW67.5 255 15 min 79,6 klux 0,00 min 10,9 C -0,4 C
01.10.2008 13:25 11,4 C 11,8 C 94 % 999 hPa 0,0 l/m 55,2 km/h (7 Bft) W-SW45 255 0 min 23,2 klux 0,00 min 10,5 C -0,6 C
01.10.2008 13:40 11,4 C 11,6 C 93 % 999 hPa 0,0 l/m 62,1 km/h (8 Bft) W-SW45 250 0 min 48,6 klux 0,00 min 10,3 C -1,1 C
01.10.2008 13:55 11,3 C 11,4 C 93 % 999 hPa 0,0 l/m 53,6 km/h (7 Bft) W-SW45 255 0 min 37,1 klux 0,00 min 10,2 C -0,6 C
01.10.2008 14:10 11,4 C 11,7 C 92 % 999 hPa 0,0 l/m 63,4 km/h (8 Bft) W-SW45 250 0 min 34,2 klux 0,00 min 10,1 C -1,1 C
01.10.2008 14:25 12,0 C 12,5 C 90 % 999 hPa 0,0 l/m 53,4 km/h (7 Bft) W67.5 260 0 min 49,4 klux 0,00 min 10,4 C 0,5 C
01.10.2008 14:40 11,8 C 11,7 C 89 % 999 hPa 0,0 l/m 59,9 km/h (7 Bft) W-SW45 250 0 min 30,3 klux 0,00 min 10,0 C -0,3 C
01.10.2008 14:55 11,2 C 11,0 C 91 % 999 hPa 0,3 l/m 53,8 km/h (7 Bft) W-SW45 250 0 min 16,3 klux 15,00 min 9,8 C -0,8 C
01.10.2008 15:10 11,0 C 10,9 C 93 % 999 hPa 0,0 l/m 57,3 km/h (7 Bft) W-SW22.5 240 0 min 19,8 klux 0,00 min 9,9 C -1,4 C
01.10.2008 15:25 11,1 C 11,0 C 93 % 999 hPa 0,0 l/m 46,9 km/h (6 Bft) W-SW45 250 0 min 17,3 klux 0,00 min 10,0 C -0,3 C
01.10.2008 15:40 10,8 C 10,5 C 94 % 999 hPa 0,6 l/m 52,1 km/h (7 Bft) W-SW45 255 0 min 6,62 klux 15,00 min 9,9 C -1,3 C
01.10.2008 15:55 10,3 C 10,1 C 93 % 1000 hPa 1,8 l/m 46,3 km/h (6 Bft) W45 265 0 min 4,55 klux 15,00 min 9,2 C -1,5 C
01.10.2008 16:10 9,6 C 9,5 C 93 % 1000 hPa 0,6 l/m 52,5 km/h (7 Bft) W45 270 0 min 6,66 klux 15,00 min 8,5 C -3,2 C
01.10.2008 16:25 9,6 C 9,5 C 95 % 1000 hPa 0,3 l/m 40,8 km/h (6 Bft) W45 260 0 min 11,1 klux 15,00 min 8,8 C -1,8 C
01.10.2008 16:40 10,0 C 9,9 C 95 % 1000 hPa 0,0 l/m 44,6 km/h (6 Bft) W45 260 0 min 12,8 klux 0,00 min 9,2 C -1,7 C
01.10.2008 16:55 10,0 C 9,9 C 94 % 1000 hPa 0,0 l/m 43,6 km/h (6 Bft) W45 260 0 min 13,1 klux 0,00 min 9,1 C -1,6 C
01.10.2008 17:10 9,7 C 9,7 C 93 % 1000 hPa 0,0 l/m 47,5 km/h (6 Bft) W22.5 260 0 min 11,1 klux 0,00 min 8,6 C -2,5 C
01.10.2008 17:25 9,6 C 9,7 C 93 % 1000 hPa 0,0 l/m 45,3 km/h (6 Bft) W45 260 0 min 11,7 klux 0,00 min 8,5 C -2,4 C
01.10.2008 17:40 9,6 C 9,6 C 92 % 1000 hPa 0,0 l/m 46,7 km/h (6 Bft) W45 260 0 min 12,3 klux 0,00 min 8,4 C -2,6 C
01.10.2008 17:55 9,5 C 9,6 C 92 % 1000 hPa 0,0 l/m 54,6 km/h (7 Bft) W45 260 0 min 7,88 klux 0,00 min 8,3 C -3,5 C
01.10.2008 18:10 9,3 C 9,5 C 92 % 1000 hPa 0,0 l/m 43,4 km/h (6 Bft) W-SW45 250 0 min 6,34 klux 0,00 min 8,1 C -2,6 C
01.10.2008 18:25 9,2 C 9,3 C 90 % 1000 hPa 0,0 l/m 60,1 km/h (7 Bft) W67.5 260 0 min 7,47 klux 0,00 min 7,6 C -4,4 C
01.10.2008 18:40 8,8 C 8,7 C 90 % 1000 hPa 0,0 l/m 50,0 km/h (6 Bft) W45 265 0 min 7,32 klux 0,00 min 7,3 C -4,2 C
01.10.2008 18:56 8,4 C 8,4 C 91 % 1000 hPa 0,0 l/m 44,8 km/h (6 Bft) W45 260 0 min 3,78 klux 0,00 min 7,0 C -4,2 C
01.10.2008 19:11 8,1 C 8,1 C 92 % 1001 hPa 0,0 l/m 39,2 km/h (6 Bft) W45 260 0 min 1,31 klux 0,00 min 6,9 C -3,8 C
01.10.2008 19:26 8,0 C 8,0 C 93 % 1001 hPa 0,0 l/m 35,4 km/h (5 Bft) W-SW22.5 255 0 min 312 lux 0,00 min 6,9 C -3,3 C
01.10.2008 19:41 7,8 C 7,6 C 93 % 1001 hPa 0,0 l/m 40,6 km/h (6 Bft) W-SW22.5 255 0 min 53 lux 0,00 min 6,7 C -4,5 C
01.10.2008 19:56 7,5 C 7,3 C 93 % 1001 hPa 0,0 l/m 35,0 km/h (5 Bft) W45 260 0 min 4 lux 0,00 min 6,4 C -3,9 C
01.10.2008 20:11 7,3 C 7,2 C 94 % 1001 hPa 0,0 l/m 28,9 km/h (5 Bft) W-SW22.5 255 0 min 0 lux 0,00 min 6,4 C -2,9 C
01.10.2008 20:26 7,3 C 7,2 C 94 % 1001 hPa 0,0 l/m 42,8 km/h (6 Bft) W-SW67.5 250 0 min 0 lux 0,00 min 6,4 C -5,5 C
01.10.2008 20:41 7,3 C 7,2 C 93 % 1001 hPa 0,3 l/m 35,1 km/h (5 Bft) W-SW45 250 0 min 0 lux 15,00 min 6,2 C -4,2 C
01.10.2008 20:56 7,4 C 7,5 C 93 % 1001 hPa 0,0 l/m 41,1 km/h (6 Bft) W22.5 260 0 min 0 lux 0,00 min 6,3 C -5,1 C
01.10.2008 21:11 7,6 C 7,4 C 92 % 1002 hPa 0,0 l/m 43,8 km/h (6 Bft) W45 260 0 min 0 lux 0,00 min 6,4 C -5,2 C
01.10.2008 21:26 7,5 C 7,3 C 92 % 1002 hPa 0,0 l/m 40,7 km/h (6 Bft) W-SW22.5 250 0 min 0 lux 0,00 min 6,3 C -4,9 C
01.10.2008 21:41 7,5 C 7,4 C 93 % 1002 hPa 0,0 l/m 43,6 km/h (6 Bft) W-SW45 255 0 min 0 lux 0,00 min 6,4 C -5,4 C
01.10.2008 21:56 7,4 C 7,2 C 93 % 1002 hPa 0,0 l/m 32,4 km/h (5 Bft) W-SW22.5 250 0 min 0 lux 0,00 min 6,3 C -3,5 C
01.10.2008 22:10 7,2 C 7,1 C 92 % 1002 hPa 0,0 l/m 37,4 km/h (5 Bft) W-SW45 250 0 min 0 lux 0,00 min 6,0 C -4,8 C
01.10.2008 22:25 7,1 C 6,9 C 92 % 1002 hPa 0,0 l/m 35,8 km/h (5 Bft) W45 260 0 min 0 lux 0,00 min 5,9 C -4,7 C
01.10.2008 22:40 7,0 C 7,0 C 92 % 1002 hPa 0,0 l/m 37,0 km/h (5 Bft) W22.5 265 0 min 0 lux 0,00 min 5,8 C -5,0 C
01.10.2008 22:55 7,2 C 7,1 C 92 % 1002 hPa 0,0 l/m 32,9 km/h (5 Bft) W22.5 260 0 min 0 lux 0,00 min 6,0 C -3,9 C
01.10.2008 23:10 7,0 C 7,0 C 92 % 1002 hPa 0,0 l/m 32,0 km/h (5 Bft) W45 260 0 min 0 lux 0,00 min 5,8 C -4,0 C
01.10.2008 23:25 7,0 C 7,0 C 93 % 1002 hPa 0,0 l/m 37,4 km/h (5 Bft) W22.5 265 0 min 0 lux 0,00 min 5,9 C -5,1 C
01.10.2008 23:40 7,0 C 7,1 C 93 % 1003 hPa 0,0 l/m 36,0 km/h (5 Bft) W-SW22.5 250 0 min 0 lux 0,00 min 5,9 C -4,8 C
01.10.2008 23:55 7,1 C 7,1 C 93 % 1003 hPa 0,0 l/m 39,2 km/h (6 Bft) W-SW45 255 0 min 0 lux 0,00 min 6,0 C -5,3 C
_ Min-Zeit 22:40 22:25 14:40 07:40 - 20:11 - - - - - 22:40 20:26
Minimum _ 7,0 C 6,9 C 89 % 999 hPa - 28,9 km/h (5 Bft) - - - - - 5,8 C -5,5 C
_ Max-Zeit 14:25 14:25 01:26 23:40 04:55 14:10 - - 13:10 13:10 01:11 13:10 14:25
Maximum _ 12,0 C 12,5 C 99 % 1003 hPa 3,9 l/m 63,4 km/h
W-SW (8 Bft)
- - 15 min 79,6 klux 15,00 min 10,9 C 0,5 C
Durchschnitt _ 9,2 C 9,2 C 96 % 1001 hPa #17,7 l/m 44,4 km/h (6 Bft) W-SW - #15 min. 7,73 klux #8:00 h 8,5 C -2,8 C